Regional Weather Roundup
Issued by NWS

Home | Current Version | Previous Version | Text Only | Print | Product List | Glossary Off
Versions: 1 2 3 4 5 6 7 8 9 10 11 12 13 14 15 16 17 18 19 20 21 22 23 24 25 26 27 28 29 30 31 32 33 34 35 36 37 38 39 40 41 42 43 44 45 46 47 48 49 50

000
ASUS43 KMPX 251210
RWRMN
WEATHER ROUNDUP FOR MINNESOTA
NATIONAL WEATHER SERVICE TWIN CITIES/CHANHASSEN MN
700 AM CDT THU AUG 25 2016


NOTE: "FAIR" INDICATES FEW OR NO CLOUDS BELOW 12,000 FEET WITH NO
SIGNIFICANT WEATHER AND/OR OBSTRUCTIONS TO VISIBILITY. N/A MEANS
CURRENT SKY AND/OR WEATHER CONDITIONS ARE NOT AVAILABLE.

MNZ060>063-068>070-251300-
   Twin Cities Metro

CITY           SKY/WX    TMP DP  RH WIND       PRES   REMARKS
TWIN CITIES    PTCLDY    62  57  83 SW7       30.02S
6HR MIN TEMP:  62; 6HR MAX TEMP:  66;

ST PAUL        CLEAR     62  58  86 CALM      30.02S
CRYSTAL        CLEAR     60  55  83 S3        30.00S
BLAINE         PTCLDY    61  59  94 W5        30.01S
LAKEVILLE      PTCLDY    59  59 100 W3        30.03F
EDEN PRAIRIE   PTCLDY    61  57  87 SW5       30.01F
6HR MIN TEMP:  60; 6HR MAX TEMP:  64;

LAKEVILLE      PTCLDY    59  59 100 W3        30.03F
SOUTH ST PAUL  CLEAR     62  57  85 SW5       30.02S
LAKE ELMO      FAIR      57  57 100 CALM      30.02F
$$
MNZ001>005-007-008-013>017-022>024-027-028-251300-
   Northwest Minnesota

CITY           SKY/WX    TMP DP  RH WIND       PRES   REMARKS
BEMIDJI        CLOUDY    55  52  90 SW9       29.94S
HALLOCK        LGT RAIN  59  57  94 NW10      29.88R
ROSEAU         CLOUDY    57  54  88 SW9       29.87R
WARROAD        CLOUDY    57  54  88 SW10      29.86S
THIEF RVR FALL CLOUDY    56  54  93 SW12      29.92R
CROOKSTON      CLOUDY    57  55  94 W12       29.94R
FOSSTON        CLOUDY    54  52  94 SW9       29.95S
DETROIT LAKES  MOCLDY    55  52  88 W10       30.00S
MOORHEAD       CLOUDY    55  52  88 W10       30.00S
PARK RAPIDS    CLOUDY    56  52  86 W7        29.97S
MAHNOMEN       CLOUDY    52  51  95 SW9       29.97S
$$
MNZ006-009>011-018-025>026-251300-
   North Central Minnesota

CITY           SKY/WX    TMP DP  RH WIND       PRES   REMARKS
BAUDETTE       MOCLDY    54  52  93 SW6       29.86S
FLAG ISLAND    CLOUDY    55  54  94 W6        29.83R FOG
INTL FALLS     CLEAR     52  50  93 SW6       29.88R
6HR MIN TEMP:  50; 6HR MAX TEMP:  54;

WASKISH        CLOUDY    61  55  82 W15G24    29.90R
BIG FORK       CLEAR     54  52  94 SW6       29.92R
LONGVILLE      CLEAR     55  52  88 SW8       29.96R
GRAND RAPIDS   CLEAR     57  52  83 SW8       29.96S
CRANE LAKE     CLEAR     54  52  94 S5        29.90F
ORR            CLEAR     52  48  87 CALM      29.89R
COOK           CLEAR     55  52  88 SW6       29.91S
WALKER         PTSUNNY   54  51  90 W8        29.96R
$$
MNZ012-019>021-037-251300-
   Northeast Minnesota

CITY           SKY/WX    TMP DP  RH WIND       PRES   REMARKS
DULUTH         CLEAR     57  53  86 W8        29.95S
6HR MIN TEMP:  55; 6HR MAX TEMP:  58;

ELY            CLEAR     54  52  94 SW5       29.92S
HIBBING        CLEAR     49  49 100 CALM      29.94R FOG
EVELETH        CLEAR     53  51  95 W3        29.95R
DULUTH HARBOR  CLEAR     57  55  94 SW10      29.94F
TWO HARBORS    CLEAR     61  55  82 W5        29.92S
SILVER BAY     CLEAR     52  48  87 CALM      29.92R
GRAND MARAIS     N/A     61  55  81 CALM      29.88R
G MARAIS ARPRT CLEAR     54  48  82 W3        29.92S
$$
MNZ029>031-032-039>041-046>048-054>057-064-251300-
   West Central Minnesota

CITY           SKY/WX    TMP DP  RH WIND       PRES   REMARKS
FERGUS FALLS   CLEAR     52  52 100 W7        30.05R
WHEATON        CLEAR     55  52  88 W7        30.07R
MORRIS         CLEAR     55  52  88 W9        30.05R
ALEXANDRIA     CLEAR     55  51  86 W12G20    30.04S
ELBOW LAKE     FAIR      50  49  97 SW7       30.05R
GLENWOOD       CLEAR     55  52  88 W10       30.04S
APPLETON       CLEAR     54  50  87 W5        30.06S FOG
BENSON         CLEAR     52  46  82 NW6       30.06S
ORTONVILLE     CLEAR     55  50  82 CALM      30.07S
MADISON        CLEAR     54  52  94 W5        30.08R
WILLMAR        FAIR      55  54  94 W6        30.07R
$$
MNZ033>034-036-042>043-049>051-058-059-251300-
   Central Minnesota

CITY           SKY/WX    TMP DP  RH WIND       PRES   REMARKS
ST CLOUD       CLEAR     56  55  97 W7        30.01S
6HR MIN TEMP:  53; 6HR MAX TEMP:  59;

SAUK CENTRE    FAIR      54  51  90 W7        30.04R
PAYNESVILLE    CLEAR     52  53 100 W6        30.04S
AITKIN           N/A     59  52  77 SW5       29.96S
PINE RIVER     CLEAR     54  52  94 CALM      30.01S
BRAINERD       CLEAR     55  53  93 SW7       29.99S
STAPLES        CLEAR     54  50  87 SW7       30.00R
LONG PRAIRIE   FAIR      54  50  87 SW7       30.03R
LITTLE FALLS   CLEAR     55  52  88 W3        30.01S
LITCHFIELD     MOCLDY    61  57  88 W3        30.04S
BUFFALO        CLEAR     59  56  89 SW5       30.03S
MAPLE LAKE     PTCLDY    59  58  94 W6        30.03S
HUTCHINSON     CLOUDY    58  56  96 W5        30.05R
$$
MNZ037-044-045-052-053-251300-
   East Central Minnesota

CITY           SKY/WX    TMP DP  RH WIND       PRES   REMARKS
PRINCETON      CLEAR     57  55  94 CALM      30.01S
MORA           CLEAR     55  54  94 W5        30.01S
CAMBRIDGE      CLEAR     59  54  82 CALM      29.99S
RUSH CITY      PTCLDY    56  55  95 CALM      30.00S
MOOSE LAKE     CLEAR     50  50 100 CALM      29.96S FOG
HINCKLEY       FAIR      54  54 100 SW3       29.99S
CLOQUET        CLEAR     55  52  88 SW7       29.96S
MCGREGOR       CLEAR     55  54  94 SW5       29.98R
$$
MNZ071>073-080-081-089-090-097-098-251300-
   Southwest Minnesota

CITY           SKY/WX    TMP DP  RH WIND       PRES   REMARKS
MONTEVIDEO     PTCLDY    55  54  94 NW5       30.08S
GRANITE FALLS  PTCLDY    55  54  95 W7        30.08S
CANBY          PTCLDY    55  51  85 NW3       30.10R
MARSHALL       PTCLDY    55  52  89 NW8       30.08S
REDWOOD FALLS  MOCLDY    57  53  86 W8        30.06R
OLIVIA         PTCLDY    54  52  94 NW5       30.05R
PIPESTONE      CLOUDY    57  54  88 N2        30.10S
WINDOM         PTCLDY    57  54  88 W5        30.08S
WORTHINGTON    PTCLDY    57  54  89 W6        30.10S
JACKSON        PTCLDY    55  52  88 CALM      30.09S
TRACY          PTCLDY    59  54  81 W5        30.09R
SLAYTON        PTCLDY    57  54  88 NW8       30.11R
$$
MNZ065>067-074>077-082>085-091>093-251300-
   South Central Minnesota

CITY           SKY/WX    TMP DP  RH WIND       PRES   REMARKS
MANKATO        CLEAR     59  54  82 SW6       30.05S
NEW ULM          N/A     57  55  94 W8        30.05F
ST JAMES       PTCLDY    54  52  94 W3        30.07S
FAIRMONT       CLEAR     58  54  86 SW5       30.08S
GLENCOE        PTCLDY    59  58  95 SW3       30.03S
FARIBAULT      CLEAR     59  57  94 CALM      30.05S
OWATONNA       CLEAR     57  55  94 S3        30.05F
WASECA         CLEAR     55  55 100 SW3       30.07S FOG
ALBERT LEA     CLOUDY    61  57  88 W3        30.07S
$$
MNZ078>079-086>088-094>096-251300-
   Southeast Minnesota

CITY           SKY/WX    TMP DP  RH WIND       PRES   REMARKS
ROCHESTER      CLOUDY    61  60  97 W6        30.07S
6HR MIN TEMP:  61; 6HR MAX TEMP:  63;

RED WING       CLOUDY    59  57  94 CALM      30.02S
STANTON        CLEAR     59  57  94 SW3       30.02F
DODGE CENTER   CLOUDY    57  57 100 W6        30.06S
WINONA         CLOUDY    59  59 100 CALM      30.04S
AUSTIN         CLOUDY    61  57  88 CALM      30.07R
PRESTON        PTCLDY    58  56  91 NW6       30.07R
$$
ABBREVIATIONS USED IN REMARKS
   TC - TEMPERATURES IN CELSIUS
  WCI - WIND CHILL INDEX
   HX - HEAT INDEX
  VSB - VISIBILITY
$$




USA.gov is the U.S. government's official web portal to all federal, state and local government web resources and services.